Regional Weather Roundup
Issued by NWS

Home | Current Version | Previous Version | Text Only | Print | Product List | Glossary Off
Versions: 1 2 3 4 5 6 7 8 9 10 11 12 13 14 15 16 17 18 19 20 21 22 23 24 25 26 27 28 29 30 31 32 33 34 35 36 37 38 39 40 41 42 43 44 45 46 47 48 49 50

000
ASUS43 KDTX 211801
RWRMI
MICHIGAN HOURLY REGIONAL WEATHER ROUNDUP
NATIONAL WEATHER SERVICE DETROIT/PONTIAC MI
100 PM EST TUE FEB 21 2017

NOTE: "FAIR" INDICATES FEW OR NO CLOUDS BELOW 12,000 FEET WITH NO
SIGNIFICANT WEATHER AND/OR OBSTRUCTION TO VISIBILITY.

MIZ047>049-052>055-059>063-066>070-074>076-081>083-211900-
SOUTHEAST LOWER MICHIGAN

CITY           SKY/WX    TMP DP  RH WIND       PRES   REMARKS
ADRIAN         CLOUDY    51  45  79 SW10      29.96S
6HR MIN TEMP:  36; 6HR MAX TEMP:  52; 6HR PCP: TRACE;

ALMA           CLOUDY    55  51  88 W10       29.90F
6HR MIN TEMP:  43; 6HR MAX TEMP:  55;

ANN ARBOR      CLOUDY    51  43  74 S8        29.94S
BAD AXE        CLOUDY    48  46  92 SW7       29.89F FOG
6HR MIN TEMP:  40; 6HR MAX TEMP:  48;

CARO           CLOUDY    51  49  92 S8        29.88F
DETROIT CITY   CLOUDY    52  41  66 S7        29.93F
6HR MIN TEMP:  38; 6HR MAX TEMP:  52;

DETROIT        CLOUDY    53  42  66 S7        29.93F
6HR MIN TEMP:  39; 6HR MAX TEMP:  53; 6HR PCP: TRACE;

FLINT          CLOUDY    54  47  77 SW9       29.91F
6HR MIN TEMP:  47; 6HR MAX TEMP:  54; 6HR PCP:  0.03;

GROSSE ILE     CLOUDY    43  37  78 S6        29.93F
6HR MIN TEMP:  38; 6HR MAX TEMP:  46;

HILLSDALE      CLOUDY    52  48  87 SW6       29.94F
HOWELL         LGT RAIN  51  48  89 SW7       29.92F
6HR MIN TEMP:  43; 6HR MAX TEMP:  51; 6HR PCP:  0.02;


CITY           SKY/WX    TMP DP  RH WIND       PRES   REMARKS
JACKSON        CLOUDY    55  51  86 SW8       29.93F
6HR MIN TEMP:  44; 6HR MAX TEMP:  55; 6HR PCP:  0.03;

LAMBERTVILLE   LGT RAIN  53  47  78 CALM      29.94F
6HR MIN TEMP:  38; 6HR MAX TEMP:  55;

LANSING        MOSUNNY   60  51  72 SW15      29.91F
6HR MIN TEMP:  46; 6HR MAX TEMP:  60; 6HR PCP:  0.06;

LAPEER         CLOUDY    51  47  88 W6        29.91F
6HR MIN TEMP:  45; 6HR MAX TEMP:  51; 6HR PCP:  0.02;

MASON          MOSUNNY   57  51  82 SW5       29.92F
MONROE         LGT RAIN  52  45  77 SW6       29.94F
MT. CLEMENS    LGT RAIN  45  39  81 E7        29.91F
PONTIAC        LGT RAIN  49  46  90 W5        29.91S FOG
6HR MIN TEMP:  38; 6HR MAX TEMP:  50; 6HR PCP:  0.03;

PORT HOPE        N/A     48  45  89 NW12G17   29.88R
6HR MIN TEMP:  40; 6HR MAX TEMP:  49; 6HR PCP:  0.05;

PORT HURON     DRIZZLE   45  41  87 S6        29.92F
TRI CITIES     CLOUDY    53  51  93 W10       29.90F FOG
6HR MIN TEMP:  43; 6HR MAX TEMP:  53; 6HR PCP:  0.08;

MIDLAND        CLOUDY    53  49  87 W7        29.89S FOG
6HR MIN TEMP:  41; 6HR MAX TEMP:  53; 6HR PCP:  0.03;

TROY           LGT RAIN  51  39  64 CALM      29.93F
SAGINAW HB     CLOUDY    52  46  82 SW9       29.89S
$$
MIZ043>046-050>051-056>058-064>065-071>073-077>080-211900-
SOUTHWEST LOWER MICHIGAN

CITY           SKY/WX    TMP DP  RH WIND       PRES   REMARKS
BATTLE CREEK   MOSUNNY   60  53  77 SW14      29.93F
6HR MIN TEMP:  49; 6HR MAX TEMP:  61; 6HR PCP:  0.06;

BENTON HARBOR  CLOUDY    53  49  86 W12       29.94F
6HR MIN TEMP:  53; 6HR MAX TEMP:  62; 6HR PCP:  0.16;

BIG RAPIDS     CLOUDY    53  47  82 W7        29.90S
6HR MIN TEMP:  43; 6HR MAX TEMP:  53; 6HR PCP:  0.04;

COLDWATER      CLOUDY    56  53  90 CALM      29.93F
6HR MIN TEMP:  49; 6HR MAX TEMP:  56;

FREMONT        CLOUDY    53  48  84 W5        29.91F
HOLLAND        CLOUDY    52  50  93 SW10      29.93F FOG
6HR MIN TEMP:  49; 6HR MAX TEMP:  56; 6HR PCP:  0.10;

GRAND RAPIDS   DRIZZLE   54  52  93 W13       29.92F FOG
6HR MIN TEMP:  48; 6HR MAX TEMP:  57; 6HR PCP:  0.10;

IONIA          CLOUDY    56  52  87 W9G18     29.90F
6HR MIN TEMP:  46; 6HR MAX TEMP:  56; 6HR PCP:  0.07;

KALAMAZOO      MOSUNNY   58  52  80 SW10      29.93F
6HR MIN TEMP:  49; 6HR MAX TEMP:  58; 6HR PCP:  0.06;

LUDINGTON      SUNNY     51  45  79 W6        29.90F
6HR MIN TEMP:  43; 6HR MAX TEMP:  52;

MARSHALL       MOSUNNY   58  55  87 SW6       29.93F
6HR MIN TEMP:  49; 6HR MAX TEMP:  58; 6HR PCP:  0.02;

MOUNT PLEASANT CLOUDY    52  51  95 W9        29.89S FOG
6HR MIN TEMP:  40; 6HR MAX TEMP:  52; 6HR PCP:  0.02;

MUSKEGON       CLOUDY    50  47  89 SW5       29.93F FOG
6HR MIN TEMP:  46; 6HR MAX TEMP:  51; 6HR PCP:  0.04;

SOUTH HAVEN    PTSUNNY   53  50  89 W8        29.93S
$$
MIZ016>042-211900-
NORTHERN LOWER MICHIGAN

CITY           SKY/WX    TMP DP  RH WIND       PRES   REMARKS
ALPENA         CLOUDY    51  47  86 W8G16     29.84F
6HR MIN TEMP:  40; 6HR MAX TEMP:  51; 6HR PCP:  0.05;

BEAVER ISLAND  SUNNY     47  42  80 SW9       29.84S
6HR MIN TEMP:  40; 6HR MAX TEMP:  48;

BELLAIRE       SUNNY     54  44  69 W6        29.87F
6HR MIN TEMP:  45; 6HR MAX TEMP:  54;

CADILLAC       CLOUDY    49  46  88 W8        29.88S
CHARLEVOIX     SUNNY     52  44  72 W16       29.88F
FRANKFORT      SUNNY     49  44  81 W5        29.89F
GAYLORD        PTSUNNY   48  42  80 W9        29.84F
6HR MIN TEMP:  40; 6HR MAX TEMP:  48; 6HR PCP:  0.01;

GRAYLING       CLOUDY    50  47  90 SW3       29.87F FOG
HARBOR SPRINGS PTSUNNY   47  43  86 W8        29.84F
HOUGHTON LAKE  CLOUDY    46  45  96 W6        29.88S FOG
6HR MIN TEMP:  38; 6HR MAX TEMP:  47; 6HR PCP:  0.10;

MANISTEE       MOSUNNY   52  44  74 SW9       29.90S
OSCODA         CLOUDY    47  45  93 W10       29.85F FOG
6HR MIN TEMP:  39; 6HR MAX TEMP:  47; 6HR PCP:  0.01;

PELLSTON       MOSUNNY   47  41  80 SW9       29.83F
6HR MIN TEMP:  46; 6HR MAX TEMP:  49; 6HR PCP:  0.01;

ROGERS CITY    CLOUDY    53  46  78 W8G17     29.83F
TRAVERSE CITY  MOSUNNY   55  44  66 VRB7      29.86S
6HR MIN TEMP:  48; 6HR MAX TEMP:  56;

$$
MIZ007>008-015-211900-
EASTERN UPPER MICHIGAN

CITY           SKY/WX    TMP DP  RH WIND       PRES   REMARKS
KINROSS        FOG       40  39  97 N5        29.81F VSB 1/2
6HR MIN TEMP:  34; 6HR MAX TEMP:  43; 6HR PCP:  0.07;

MACKINAC ISLAN FOG       38  38 100 SW8       29.82S VSB<1/4 WCI  32
6HR MIN TEMP:  38; 6HR MAX TEMP:  46; 6HR PCP:  0.02;

NEWBERRY       SUNNY     45  42  89 SW5       29.80F
6HR MIN TEMP:  38; 6HR MAX TEMP:  46;

S. S. MARIE    CLOUDY    41  38  89 NW5       29.80F FOG
6HR MIN TEMP:  35; 6HR MAX TEMP:  41; 6HR PCP:  0.07;

MUNISING         N/A     54  32  43 VRB6      29.80S
6HR MIN TEMP:  42; 6HR MAX TEMP:  55;

$$
MIZ004>006-011>014-085-211900-
CENTRAL UPPER MICHIGAN

CITY           SKY/WX    TMP DP  RH WIND       PRES   REMARKS
MANISTIQUE     SUNNY     53  39  59 NW9       29.82R
6HR MIN TEMP:  36; 6HR MAX TEMP:  53;

ESCANABA       SUNNY     56  37  49 W9        29.83F
6HR MIN TEMP:  36; 6HR MAX TEMP:  56;

MENOMINEE      SUNNY     55  40  56 NW7       29.87S
6HR MIN TEMP:  47; 6HR MAX TEMP:  55;

SAWYER-GWINN   SUNNY     48  34  57 SW10      29.81S
$$
MIZ001>003-009>011-084-211900-
WESTERN UPPER MICHIGAN

CITY           SKY/WX    TMP DP  RH WIND       PRES   REMARKS
IRON MOUNTAIN  SUNNY     53  34  48 VRB7G17   29.83R
6HR MIN TEMP:  43; 6HR MAX TEMP:  53;

HOUGHTON       SUNNY     41  32  70 W16       29.78R
6HR MIN TEMP:  37; 6HR MAX TEMP:  41;

COPPER HARBOR    N/A     44  32  62 VRB7G20   29.76R
6HR MIN TEMP:  39; 6HR MAX TEMP:  44;

IRONWOOD       SUNNY     51  36  56 W10       29.82F
6HR MIN TEMP:  36; 6HR MAX TEMP:  51;

$$

ABBREVIATIONS USED IN REMARKS
   TC - TEMPERATURE IN CELSIUS
  WCI - WIND CHILL INDEX
   HX - HEAT INDEX
  VSB - VISIBILITY





USA.gov is the U.S. government's official web portal to all federal, state and local government web resources and services.